COOK73 FZWA-FTTY

Flight info

Callsign COOK73
Flight time 3h 46m
Altitude 34000
Route GARVO1A GARVO DCT NEGTO UM214 PODGA
Aircraft C25C/M-SDE2E3FGHRWXY/LB1

Departure

Time 2026-05-08 15:35
Airport Mbuji Mayi Airport (FZWA)

Arrival

Time 2026-05-08 19:21
Airport Faya-Largeau Airport (FTTY)
Time Latitude Longitude Altitude Speed Heading
2026-05-08 15:22 -6.12512 23.57176 2208 ft 0 kts 70°
2026-05-08 15:27 -6.12514 23.57171 2208 ft 5 kts 70°
2026-05-08 15:27 -6.12518 23.57152 2206 ft 2 kts 90°
2026-05-08 15:28 -6.12515 23.57142 2207 ft 2 kts 140°
2026-05-08 15:28 -6.12505 23.57138 2207 ft 2 kts 168°
2026-05-08 15:28 -6.12502 23.57137 2206 ft 0 kts 168°
2026-05-08 15:29 -6.12503 23.57137 2206 ft 1 kts 167°
2026-05-08 15:30 -6.12530 23.57143 2206 ft 8 kts 180°
2026-05-08 15:30 -6.12564 23.57093 2206 ft 11 kts 252°
2026-05-08 15:30 -6.12528 23.57037 2205 ft 11 kts 340°
2026-05-08 15:30 -6.12450 23.57009 2205 ft 13 kts 341°
2026-05-08 15:31 -6.12351 23.56977 2204 ft 17 kts 341°
2026-05-08 15:31 -6.12232 23.56938 2204 ft 19 kts 341°
2026-05-08 15:31 -6.12104 23.56895 2205 ft 20 kts 341°
2026-05-08 15:31 -6.11963 23.56847 2204 ft 22 kts 341°
2026-05-08 15:32 -6.11812 23.56796 2206 ft 23 kts 342°
2026-05-08 15:32 -6.11655 23.56744 2206 ft 24 kts 342°
2026-05-08 15:32 -6.11498 23.56690 2203 ft 20 kts 341°
2026-05-08 15:32 -6.11393 23.56662 2201 ft 15 kts 347°
2026-05-08 15:33 -6.11310 23.56643 2199 ft 11 kts 347°
2026-05-08 15:33 -6.11291 23.56618 2198 ft 4 kts 145°
2026-05-08 15:33 -6.11298 23.56622 2198 ft 0 kts 157°
2026-05-08 15:34 -6.11300 23.56622 2198 ft 4 kts 157°
2026-05-08 15:34 -6.11535 23.56703 2203 ft 77 kts 161°
2026-05-08 15:34 -6.12291 23.56963 2351 ft 133 kts 159°
2026-05-08 15:35 -6.13131 23.57287 2903 ft 147 kts 160°
2026-05-08 15:35 -6.14262 23.57594 3106 ft 185 kts 165°
2026-05-08 15:35 -6.15544 23.58024 3419 ft 196 kts 155°
2026-05-08 15:35 -6.16577 23.59010 3522 ft 221 kts 115°
2026-05-08 15:36 -6.16938 23.60447 4663 ft 211 kts 86°
2026-05-08 15:36 -6.16698 23.61393 5311 ft 213 kts 66°
2026-05-08 15:36 -6.15232 23.62715 6589 ft 224 kts 21°
2026-05-08 15:36 -6.13669 23.62729 7477 ft 232 kts 344°
2026-05-08 15:37 -6.12249 23.61947 8386 ft 236 kts 328°
2026-05-08 15:37 -6.10889 23.61006 9275 ft 239 kts 326°
2026-05-08 15:37 -6.09527 23.60048 10129 ft 242 kts 328°
2026-05-08 15:37 -6.08128 23.59097 10943 ft 244 kts 328°
2026-05-08 15:38 -6.06705 23.58139 11738 ft 247 kts 328°
2026-05-08 15:38 -6.05754 23.57497 12245 ft 249 kts 328°
2026-05-08 15:38 -6.04301 23.56528 13018 ft 252 kts 331°
2026-05-08 15:38 -6.02640 23.56052 13746 ft 251 kts 357°
2026-05-08 15:39 -6.00890 23.55885 14399 ft 254 kts 356°
2026-05-08 15:39 -5.99125 23.55736 15079 ft 256 kts 357°
2026-05-08 15:39 -5.97346 23.55588 15759 ft 258 kts 357°
2026-05-08 15:39 -5.95550 23.55430 16440 ft 260 kts 356°
2026-05-08 15:40 -5.93735 23.55269 17111 ft 263 kts 356°
2026-05-08 15:40 -5.91906 23.55107 17773 ft 265 kts 356°
2026-05-08 15:40 -5.90059 23.54944 18387 ft 268 kts 356°
2026-05-08 15:40 -5.88191 23.54781 18940 ft 270 kts 356°
2026-05-08 15:41 -5.86303 23.54615 19473 ft 274 kts 356°
2026-05-08 15:41 -5.84394 23.54468 20017 ft 277 kts 358°
2026-05-08 15:41 -5.82485 23.54335 20553 ft 280 kts 357°
2026-05-08 15:41 -5.80528 23.54192 21095 ft 283 kts 356°
2026-05-08 15:42 -5.78548 23.54042 21630 ft 287 kts 357°
2026-05-08 15:42 -5.76548 23.53892 22165 ft 290 kts 357°
2026-05-08 15:42 -5.74523 23.53741 22702 ft 293 kts 356°
2026-05-08 15:42 -5.72476 23.53589 23226 ft 297 kts 357°
2026-05-08 15:43 -5.70400 23.53434 23694 ft 301 kts 356°
2026-05-08 15:43 -5.68310 23.53278 24171 ft 302 kts 356°
2026-05-08 15:43 -5.66205 23.53121 24627 ft 305 kts 356°
2026-05-08 15:43 -5.64083 23.52963 25090 ft 307 kts 356°
2026-05-08 15:44 -5.61940 23.52803 25566 ft 309 kts 356°
2026-05-08 15:44 -5.59790 23.52643 26037 ft 311 kts 356°
2026-05-08 15:44 -5.57624 23.52482 26507 ft 313 kts 356°
2026-05-08 15:44 -5.55444 23.52318 26973 ft 315 kts 356°
2026-05-08 15:45 -5.53250 23.52155 27432 ft 317 kts 356°
2026-05-08 15:45 -5.51068 23.51993 27890 ft 319 kts 356°
2026-05-08 15:45 -5.48820 23.51825 28389 ft 320 kts 356°
2026-05-08 15:45 -5.46637 23.51662 28942 ft 318 kts 356°
2026-05-08 15:46 -5.44439 23.51499 29498 ft 316 kts 356°
2026-05-08 15:46 -5.42247 23.51335 30028 ft 315 kts 356°
2026-05-08 15:46 -5.40063 23.51173 30492 ft 313 kts 356°
2026-05-08 15:46 -5.37894 23.51011 30960 ft 312 kts 356°
2026-05-08 15:47 -5.35736 23.50850 31412 ft 310 kts 356°
2026-05-08 15:47 -5.33587 23.50690 31861 ft 309 kts 356°
2026-05-08 15:47 -5.31444 23.50531 32303 ft 308 kts 356°
2026-05-08 15:47 -5.29306 23.50371 32751 ft 307 kts 356°
2026-05-08 15:48 -5.25049 23.50054 33644 ft 305 kts 356°
2026-05-08 15:48 -5.22906 23.49895 33827 ft 314 kts 356°
2026-05-08 15:48 -5.20686 23.49731 33864 ft 326 kts 356°
2026-05-08 15:49 -5.18371 23.49557 33878 ft 339 kts 356°
2026-05-08 15:49 -5.15974 23.49379 33876 ft 352 kts 356°
2026-05-08 15:49 -5.13492 23.49194 33879 ft 363 kts 356°
2026-05-08 15:50 -5.08364 23.48621 33875 ft 384 kts 346°
2026-05-08 15:50 -5.05823 23.47710 33876 ft 394 kts 335°
2026-05-08 15:50 -5.03443 23.46288 33878 ft 403 kts 324°
2026-05-08 15:51 -4.99565 23.42121 33875 ft 419 kts 303°
2026-05-08 15:51 -4.98219 23.39509 33875 ft 425 kts 292°
2026-05-08 15:51 -4.97348 23.36654 33873 ft 432 kts 282°
2026-05-08 15:52 -4.96877 23.30591 33872 ft 441 kts 277°
2026-05-08 15:52 -4.95137 23.24699 33874 ft 442 kts 297°
2026-05-08 15:53 -4.91524 23.19754 33876 ft 440 kts 317°
2026-05-08 15:53 -4.86486 23.16352 33876 ft 437 kts 337°
2026-05-08 15:54 -4.80664 23.14889 33872 ft 435 kts 356°
2026-05-08 15:54 -4.77645 23.14937 33872 ft 434 kts
2026-05-08 15:54 -4.74687 23.15509 33871 ft 433 kts 17°
2026-05-08 15:55 -4.69255 23.18073 33872 ft 432 kts 32°
2026-05-08 15:55 -4.61716 23.23024 33871 ft 432 kts 31°
2026-05-08 15:56 -4.56321 23.25701 33870 ft 433 kts 22°
2026-05-08 15:56 -4.50577 23.27408 33873 ft 434 kts 12°
2026-05-08 15:57 -4.44565 23.28016 33868 ft 435 kts 360°
2026-05-08 15:57 -4.38581 23.27042 33869 ft 437 kts 347°
2026-05-08 15:58 -4.32648 23.25709 33865 ft 436 kts 352°
2026-05-08 15:58 -4.26634 23.24852 33863 ft 436 kts 351°
2026-05-08 15:59 -4.20658 23.23753 33868 ft 437 kts 351°
2026-05-08 15:59 -4.14664 23.22770 33866 ft 437 kts 351°
2026-05-08 16:00 -4.08671 23.21733 33864 ft 437 kts 351°
2026-05-08 16:00 -4.02678 23.20681 33866 ft 437 kts 349°
2026-05-08 16:01 -3.96702 23.19520 33864 ft 438 kts 350°
2026-05-08 16:01 -3.90749 23.18376 33862 ft 438 kts 349°
2026-05-08 16:02 -3.84760 23.17214 33865 ft 438 kts 350°
2026-05-08 16:02 -3.78765 23.16059 33855 ft 439 kts 349°
2026-05-08 16:03 -3.72767 23.14898 33853 ft 439 kts 349°
2026-05-08 16:03 -3.66754 23.13738 33861 ft 439 kts 349°
2026-05-08 16:04 -3.60744 23.12575 33863 ft 440 kts 349°
2026-05-08 16:04 -3.54737 23.11414 33863 ft 440 kts 349°
2026-05-08 16:05 -3.48723 23.10252 33859 ft 440 kts 349°
2026-05-08 16:05 -3.42704 23.09091 33861 ft 440 kts 349°
2026-05-08 16:06 -3.36723 23.07936 33862 ft 440 kts 349°
2026-05-08 16:06 -3.30702 23.06774 33859 ft 441 kts 349°
2026-05-08 16:07 -3.24677 23.05610 33856 ft 441 kts 349°
2026-05-08 16:07 -3.18648 23.04446 33853 ft 441 kts 349°
2026-05-08 16:08 -3.12613 23.03281 33854 ft 442 kts 350°
2026-05-08 16:08 -3.06573 23.02115 33855 ft 442 kts 350°
2026-05-08 16:09 -3.01548 23.01146 33852 ft 442 kts 350°
2026-05-08 16:09 -2.94515 22.99789 33853 ft 443 kts 350°
2026-05-08 16:10 -2.88459 22.98621 33853 ft 443 kts 350°
2026-05-08 16:10 -2.82409 22.97454 33855 ft 443 kts 350°
2026-05-08 16:11 -2.76360 22.96289 33856 ft 443 kts 350°
2026-05-08 16:11 -2.70313 22.95122 33853 ft 442 kts 349°
2026-05-08 16:12 -2.64266 22.93955 33851 ft 442 kts 349°
2026-05-08 16:12 -2.58216 22.92788 33851 ft 442 kts 349°
2026-05-08 16:13 -2.52167 22.91622 33851 ft 442 kts 350°
2026-05-08 16:13 -2.46164 22.90466 33848 ft 442 kts 350°
2026-05-08 16:14 -2.40119 22.89301 33849 ft 442 kts 349°
2026-05-08 16:14 -2.34072 22.88136 33846 ft 442 kts 349°
2026-05-08 16:15 -2.28026 22.86969 33846 ft 442 kts 349°
2026-05-08 16:15 -2.21980 22.85803 33850 ft 442 kts 349°
2026-05-08 16:16 -2.15936 22.84640 33849 ft 442 kts 349°
2026-05-08 16:16 -2.09894 22.83476 33847 ft 442 kts 349°
2026-05-08 16:17 -2.04876 22.82509 33845 ft 442 kts 349°
2026-05-08 16:17 -1.97814 22.81148 33848 ft 442 kts 349°
2026-05-08 16:18 -1.91779 22.79984 33846 ft 442 kts 349°
2026-05-08 16:18 -1.85745 22.78822 33847 ft 441 kts 349°
2026-05-08 16:19 -1.79752 22.77669 33849 ft 441 kts 349°
2026-05-08 16:19 -1.73716 22.76507 33850 ft 441 kts 349°
2026-05-08 16:20 -1.67684 22.75346 33848 ft 441 kts 349°
2026-05-08 16:20 -1.61656 22.74184 33853 ft 441 kts 349°
2026-05-08 16:21 -1.55629 22.73023 33851 ft 441 kts 349°
2026-05-08 16:21 -1.49598 22.71861 33854 ft 441 kts 349°
2026-05-08 16:22 -1.44590 22.70897 33850 ft 441 kts 349°
2026-05-08 16:22 -1.37545 22.69541 33852 ft 441 kts 349°
2026-05-08 16:23 -1.31551 22.68389 33851 ft 441 kts 349°
2026-05-08 16:23 -1.25515 22.67226 33851 ft 441 kts 349°
2026-05-08 16:24 -1.19481 22.66064 33852 ft 442 kts 349°
2026-05-08 16:24 -1.13442 22.64901 33854 ft 442 kts 349°
2026-05-08 16:25 -1.07408 22.63739 33853 ft 442 kts 349°
2026-05-08 16:25 -1.01363 22.62576 33853 ft 442 kts 349°
2026-05-08 16:26 -0.95324 22.61415 33854 ft 442 kts 349°
2026-05-08 16:26 -0.89281 22.60252 33851 ft 442 kts 349°
2026-05-08 16:27 -0.83278 22.59097 33852 ft 442 kts 349°
2026-05-08 16:27 -0.78218 22.58123 33854 ft 442 kts 349°
2026-05-08 16:28 -0.72171 22.56959 33853 ft 442 kts 349°
2026-05-08 16:28 -0.66125 22.55795 33853 ft 442 kts 349°
2026-05-08 16:29 -0.60077 22.54630 33857 ft 442 kts 349°
2026-05-08 16:29 -0.54065 22.53474 33853 ft 443 kts 349°
2026-05-08 16:30 -0.48011 22.52309 33861 ft 443 kts 349°
2026-05-08 16:30 -0.41952 22.51144 33860 ft 443 kts 349°
2026-05-08 16:31 -0.35901 22.49980 33859 ft 443 kts 349°
2026-05-08 16:31 -0.29845 22.48814 33860 ft 443 kts 349°
2026-05-08 16:32 -0.23830 22.47656 33860 ft 443 kts 349°
2026-05-08 16:32 -0.17776 22.46490 33857 ft 443 kts 349°
2026-05-08 16:33 -0.11727 22.45326 33860 ft 443 kts 349°
2026-05-08 16:33 -0.05679 22.44163 33860 ft 442 kts 349°
2026-05-08 16:34 0.00369 22.43001 33842 ft 442 kts 349°
2026-05-08 16:34 0.06407 22.41839 33846 ft 442 kts 349°
2026-05-08 16:35 0.12453 22.40676 33842 ft 441 kts 349°
2026-05-08 16:35 0.18485 22.39515 33845 ft 441 kts 349°
2026-05-08 16:36 0.24510 22.38355 33844 ft 441 kts 349°
2026-05-08 16:36 0.30491 22.37204 33844 ft 440 kts 349°
2026-05-08 16:37 0.36510 22.36047 33843 ft 440 kts 349°
2026-05-08 16:37 0.42525 22.34891 33845 ft 440 kts 349°
2026-05-08 16:38 0.48540 22.33735 33839 ft 440 kts 349°
2026-05-08 16:38 0.54557 22.32577 33842 ft 440 kts 349°
2026-05-08 16:39 0.60572 22.31419 33836 ft 440 kts 349°
2026-05-08 16:39 0.66593 22.30261 33839 ft 440 kts 349°
2026-05-08 16:40 0.72612 22.29107 33836 ft 440 kts 349°
2026-05-08 16:40 0.78632 22.27951 33837 ft 440 kts 349°
2026-05-08 16:41 0.84652 22.26795 33833 ft 440 kts 349°
2026-05-08 16:42 0.93683 22.25059 33832 ft 441 kts 349°
2026-05-08 16:42 0.99665 22.23911 33832 ft 441 kts 349°
2026-05-08 16:43 1.05694 22.22753 33835 ft 441 kts 349°
2026-05-08 16:43 1.11719 22.21595 33837 ft 441 kts 349°
2026-05-08 16:44 1.17746 22.20436 33831 ft 441 kts 349°
2026-05-08 16:44 1.23783 22.19276 33831 ft 441 kts 349°
2026-05-08 16:45 1.29803 22.18056 33832 ft 442 kts 348°
2026-05-08 16:45 1.35820 22.16795 33829 ft 442 kts 348°
2026-05-08 16:46 1.41804 22.15529 33829 ft 442 kts 348°
2026-05-08 16:46 1.47829 22.14255 33833 ft 443 kts 348°
2026-05-08 16:47 1.53860 22.12981 33829 ft 443 kts 348°
2026-05-08 16:47 1.59899 22.11703 33830 ft 443 kts 348°
2026-05-08 16:48 1.65942 22.10425 33829 ft 444 kts 348°
2026-05-08 16:48 1.71985 22.09146 33823 ft 444 kts 348°
2026-05-08 16:49 1.77995 22.07876 33820 ft 444 kts 348°
2026-05-08 16:49 1.84047 22.06597 33820 ft 444 kts 348°
2026-05-08 16:50 1.90099 22.05318 33815 ft 444 kts 348°
2026-05-08 16:50 1.96185 22.04232 33819 ft 444 kts 353°
2026-05-08 16:51 2.02310 22.03354 33819 ft 445 kts 352°
2026-05-08 16:51 2.08445 22.02474 33814 ft 445 kts 352°
2026-05-08 16:52 2.14579 22.01598 33814 ft 445 kts 352°
2026-05-08 16:52 2.20689 22.00602 33818 ft 445 kts 349°
2026-05-08 16:53 2.29773 21.98848 33814 ft 445 kts 349°
2026-05-08 16:53 2.35850 21.97671 33819 ft 445 kts 349°
2026-05-08 16:54 2.41928 21.96500 33814 ft 445 kts 349°
2026-05-08 16:54 2.48012 21.95327 33814 ft 445 kts 349°
2026-05-08 16:55 2.54087 21.94156 33819 ft 445 kts 349°
2026-05-08 16:55 2.60162 21.92985 33815 ft 444 kts 349°
2026-05-08 16:56 2.66235 21.91814 33819 ft 444 kts 349°
2026-05-08 16:56 2.72311 21.90642 33819 ft 444 kts 349°
2026-05-08 16:57 2.78382 21.89469 33817 ft 444 kts 349°
2026-05-08 16:57 2.84448 21.88298 33819 ft 444 kts 349°
2026-05-08 16:58 2.90511 21.87128 33820 ft 444 kts 349°
2026-05-08 16:58 2.96538 21.85966 33820 ft 443 kts 349°
2026-05-08 16:59 3.02592 21.84798 33821 ft 443 kts 349°
2026-05-08 16:59 3.08646 21.83630 33821 ft 443 kts 349°
2026-05-08 17:00 3.14701 21.82461 33824 ft 443 kts 349°
2026-05-08 17:00 3.20751 21.81292 33830 ft 443 kts 349°
2026-05-08 17:01 3.26798 21.80124 33823 ft 442 kts 349°
2026-05-08 17:01 3.32847 21.78955 33824 ft 442 kts 349°
2026-05-08 17:02 3.38894 21.77788 33825 ft 442 kts 349°
2026-05-08 17:02 3.44895 21.76630 33818 ft 442 kts 349°
2026-05-08 17:03 3.50940 21.75462 33821 ft 442 kts 348°
2026-05-08 17:03 3.56974 21.74295 33834 ft 441 kts 348°
2026-05-08 17:04 3.62953 21.72891 33837 ft 441 kts 345°
2026-05-08 17:04 3.68912 21.71416 33832 ft 441 kts 346°
2026-05-08 17:05 3.74860 21.69937 33835 ft 440 kts 345°
2026-05-08 17:05 3.80802 21.68460 33837 ft 440 kts 346°
2026-05-08 17:06 3.86739 21.66986 33837 ft 439 kts 346°
2026-05-08 17:06 3.92631 21.65522 33838 ft 439 kts 346°
2026-05-08 17:07 3.98559 21.64049 33839 ft 439 kts 346°
2026-05-08 17:07 4.04482 21.62576 33841 ft 438 kts 346°
2026-05-08 17:08 4.10401 21.61104 33842 ft 438 kts 346°
2026-05-08 17:08 4.16314 21.59633 33845 ft 438 kts 346°
2026-05-08 17:09 4.22228 21.58162 33845 ft 437 kts 346°
2026-05-08 17:09 4.28135 21.56694 33849 ft 437 kts 346°
2026-05-08 17:10 4.34037 21.55226 33847 ft 437 kts 346°
2026-05-08 17:10 4.39938 21.53759 33848 ft 436 kts 346°
2026-05-08 17:11 4.45835 21.52290 33849 ft 436 kts 346°
2026-05-08 17:11 4.51724 21.50824 33853 ft 436 kts 346°
2026-05-08 17:12 4.57577 21.49366 33853 ft 436 kts 346°
2026-05-08 17:12 4.63465 21.47900 33854 ft 436 kts 346°
2026-05-08 17:13 4.69351 21.46434 33853 ft 436 kts 346°
2026-05-08 17:13 4.75236 21.44969 33854 ft 436 kts 346°
2026-05-08 17:14 4.81124 21.43503 33857 ft 435 kts 346°
2026-05-08 17:14 4.87000 21.42040 33861 ft 435 kts 346°
2026-05-08 17:15 4.92881 21.40574 33859 ft 435 kts 346°
2026-05-08 17:15 4.98751 21.39110 33861 ft 434 kts 346°
2026-05-08 17:16 5.04580 21.37656 33860 ft 434 kts 346°
2026-05-08 17:16 5.10440 21.36195 33865 ft 434 kts 346°
2026-05-08 17:17 5.16294 21.34735 33865 ft 433 kts 346°
2026-05-08 17:17 5.21157 21.33522 33866 ft 433 kts 346°
2026-05-08 17:18 5.27001 21.32065 33867 ft 432 kts 346°
2026-05-08 17:18 5.32836 21.30610 33872 ft 432 kts 346°
2026-05-08 17:19 5.38673 21.29154 33866 ft 432 kts 346°
2026-05-08 17:19 5.44503 21.27697 33870 ft 432 kts 346°
2026-05-08 17:20 5.50329 21.26242 33868 ft 431 kts 346°
2026-05-08 17:20 5.56154 21.24787 33868 ft 431 kts 346°
2026-05-08 17:21 5.61975 21.23333 33862 ft 431 kts 346°
2026-05-08 17:21 5.67791 21.21881 33864 ft 430 kts 346°
2026-05-08 17:22 5.73601 21.20430 33867 ft 430 kts 346°
2026-05-08 17:22 5.79413 21.18978 33863 ft 430 kts 346°
2026-05-08 17:23 5.85223 21.17525 33864 ft 430 kts 346°
2026-05-08 17:23 5.91031 21.16072 33864 ft 430 kts 346°
2026-05-08 17:24 5.96797 21.14629 33869 ft 430 kts 346°
2026-05-08 17:24 6.02638 21.13168 33865 ft 430 kts 346°
2026-05-08 17:25 6.08439 21.11717 33866 ft 430 kts 346°
2026-05-08 17:25 6.14198 21.10276 33865 ft 429 kts 347°
2026-05-08 17:26 6.19998 21.08825 33861 ft 429 kts 347°
2026-05-08 17:26 6.25802 21.07373 33865 ft 430 kts 347°
2026-05-08 17:27 6.31611 21.05918 33866 ft 430 kts 347°
2026-05-08 17:27 6.37411 21.04464 33865 ft 430 kts 346°
2026-05-08 17:28 6.43214 21.03009 33867 ft 430 kts 346°
2026-05-08 17:28 6.49017 21.01555 33863 ft 430 kts 347°
2026-05-08 17:29 6.54785 21.00109 33863 ft 430 kts 347°
2026-05-08 17:29 6.60601 20.98718 33860 ft 430 kts 348°
2026-05-08 17:30 6.66426 20.97347 33860 ft 430 kts 347°
2026-05-08 17:30 6.72242 20.95958 33863 ft 430 kts 347°
2026-05-08 17:31 6.78062 20.94580 33861 ft 430 kts 347°
2026-05-08 17:31 6.83880 20.93195 33855 ft 430 kts 348°
2026-05-08 17:32 6.89698 20.91815 33853 ft 429 kts 348°
2026-05-08 17:32 6.95519 20.90432 33856 ft 429 kts 348°
2026-05-08 17:33 7.01332 20.89051 33853 ft 429 kts 348°
2026-05-08 17:33 7.07143 20.87669 33852 ft 429 kts 348°
2026-05-08 17:34 7.12952 20.86287 33852 ft 429 kts 348°
2026-05-08 17:34 7.18756 20.84905 33849 ft 429 kts 348°
2026-05-08 17:35 7.24565 20.83524 33850 ft 429 kts 348°
2026-05-08 17:35 7.30370 20.82150 33853 ft 428 kts 348°
2026-05-08 17:36 7.36172 20.80774 33847 ft 428 kts 348°
2026-05-08 17:36 7.41971 20.79400 33846 ft 428 kts 348°
2026-05-08 17:37 7.47736 20.78031 33846 ft 428 kts 348°
2026-05-08 17:37 7.53532 20.76656 33844 ft 428 kts 348°
2026-05-08 17:38 7.59332 20.75277 33844 ft 428 kts 348°
2026-05-08 17:38 7.65132 20.73900 33842 ft 428 kts 348°
2026-05-08 17:39 7.70929 20.72522 33841 ft 428 kts 348°
2026-05-08 17:39 7.76721 20.71146 33837 ft 428 kts 348°
2026-05-08 17:40 7.82514 20.69770 33837 ft 428 kts 348°
2026-05-08 17:40 7.88305 20.68394 33834 ft 428 kts 348°
2026-05-08 17:41 7.94093 20.67018 33835 ft 427 kts 348°
2026-05-08 17:41 7.99889 20.65639 33829 ft 427 kts 348°
2026-05-08 17:42 8.05677 20.64258 33827 ft 427 kts 348°
2026-05-08 17:42 8.11427 20.62886 33827 ft 427 kts 348°
2026-05-08 17:43 8.17218 20.61503 33821 ft 427 kts 348°
2026-05-08 17:43 8.23001 20.60123 33820 ft 427 kts 348°
2026-05-08 17:44 8.28783 20.58743 33820 ft 427 kts 348°
2026-05-08 17:44 8.34563 20.57363 33816 ft 427 kts 348°
2026-05-08 17:45 8.40340 20.55983 33812 ft 427 kts 348°
2026-05-08 17:45 8.46120 20.54602 33811 ft 426 kts 348°
2026-05-08 17:46 8.51892 20.53221 33808 ft 426 kts 348°
2026-05-08 17:46 8.57665 20.51840 33808 ft 426 kts 348°
2026-05-08 17:47 8.63438 20.50459 33805 ft 426 kts 348°
2026-05-08 17:47 8.68235 20.49313 33800 ft 426 kts 348°
2026-05-08 17:48 8.74942 20.47707 33795 ft 426 kts 348°
2026-05-08 17:48 8.80716 20.46323 33789 ft 426 kts 348°
2026-05-08 17:49 8.86489 20.44941 33792 ft 426 kts 348°
2026-05-08 17:49 8.92256 20.43559 33783 ft 426 kts 348°
2026-05-08 17:50 8.98024 20.42178 33780 ft 426 kts 348°
2026-05-08 17:50 9.03792 20.40796 33777 ft 426 kts 348°
2026-05-08 17:51 9.09554 20.39414 33776 ft 425 kts 348°
2026-05-08 17:51 9.15316 20.38031 33774 ft 425 kts 348°
2026-05-08 17:52 9.21069 20.36650 33773 ft 425 kts 348°
2026-05-08 17:53 9.29687 20.34582 33768 ft 424 kts 348°
2026-05-08 17:53 9.35385 20.33213 33765 ft 423 kts 348°
2026-05-08 17:54 9.41115 20.31835 33772 ft 423 kts 348°
2026-05-08 17:54 9.46836 20.30460 33769 ft 422 kts 348°
2026-05-08 17:55 9.52545 20.29088 33771 ft 421 kts 348°
2026-05-08 17:55 9.58243 20.27718 33769 ft 421 kts 348°
2026-05-08 17:56 9.63941 20.26348 33768 ft 420 kts 348°
2026-05-08 17:56 9.69632 20.24979 33766 ft 420 kts 348°
2026-05-08 17:57 9.75319 20.23609 33767 ft 420 kts 348°
2026-05-08 17:57 9.80994 20.22241 33765 ft 419 kts 348°
2026-05-08 17:58 9.86668 20.20877 33757 ft 419 kts 348°
2026-05-08 17:58 9.92305 20.19517 33753 ft 419 kts 348°
2026-05-08 17:59 9.97970 20.18152 33756 ft 418 kts 348°
2026-05-08 17:59 10.03636 20.16784 33755 ft 418 kts 348°
2026-05-08 18:00 10.08380 20.15640 33752 ft 418 kts 348°
2026-05-08 18:00 10.17781 20.13371 33755 ft 417 kts 347°
2026-05-08 18:01 10.23431 20.12007 33756 ft 417 kts 347°
2026-05-08 18:01 10.29073 20.10643 33764 ft 417 kts 347°
2026-05-08 18:02 10.33764 20.09510 33760 ft 417 kts 347°
2026-05-08 18:02 10.40359 20.07917 33758 ft 416 kts 347°
2026-05-08 18:03 10.45993 20.06556 33759 ft 416 kts 347°
2026-05-08 18:03 10.51622 20.05194 33763 ft 416 kts 347°
2026-05-08 18:04 10.56294 20.04064 33768 ft 415 kts 347°
2026-05-08 18:04 10.61918 20.02702 33768 ft 415 kts 347°
2026-05-08 18:05 10.67539 20.01339 33770 ft 415 kts 347°
2026-05-08 18:05 10.73157 19.99978 33769 ft 415 kts 347°
2026-05-08 18:06 10.78771 19.98617 33776 ft 415 kts 347°
2026-05-08 18:06 10.84386 19.97257 33777 ft 415 kts 347°
2026-05-08 18:07 10.90002 19.95895 33778 ft 414 kts 347°
2026-05-08 18:07 10.95579 19.94543 33776 ft 414 kts 347°
2026-05-08 18:08 11.01193 19.93179 33773 ft 414 kts 347°
2026-05-08 18:08 11.06798 19.91818 33774 ft 414 kts 347°
2026-05-08 18:09 11.12405 19.90455 33775 ft 414 kts 347°
2026-05-08 18:09 11.18003 19.89094 33776 ft 414 kts 347°
2026-05-08 18:10 11.23607 19.87733 33776 ft 414 kts 347°
2026-05-08 18:10 11.29205 19.86373 33776 ft 413 kts 347°
2026-05-08 18:11 11.34770 19.85019 33777 ft 413 kts 347°
2026-05-08 18:11 11.40364 19.83657 33777 ft 413 kts 347°
2026-05-08 18:12 11.45955 19.82295 33778 ft 413 kts 347°
2026-05-08 18:12 11.51546 19.80932 33779 ft 413 kts 347°
2026-05-08 18:13 11.57134 19.79570 33780 ft 412 kts 347°
2026-05-08 18:13 11.62715 19.78209 33781 ft 412 kts 347°
2026-05-08 18:14 11.68332 19.77049 33779 ft 412 kts 349°
2026-05-08 18:14 11.73948 19.75922 33781 ft 411 kts 349°
2026-05-08 18:15 11.79567 19.74812 33782 ft 411 kts 349°
2026-05-08 18:15 11.85144 19.73703 33781 ft 411 kts 349°
2026-05-08 18:16 11.90755 19.72589 33779 ft 411 kts 349°
2026-05-08 18:16 11.96365 19.71474 33782 ft 410 kts 349°
2026-05-08 18:17 12.01972 19.70358 33782 ft 410 kts 349°
2026-05-08 18:17 12.07568 19.69244 33787 ft 410 kts 349°
2026-05-08 18:18 12.13166 19.68129 33783 ft 409 kts 349°
2026-05-08 18:18 12.18760 19.67015 33784 ft 409 kts 349°
2026-05-08 18:19 12.24350 19.65903 33787 ft 409 kts 349°
2026-05-08 18:19 12.29929 19.64792 33785 ft 408 kts 349°
2026-05-08 18:20 12.35508 19.63679 33785 ft 408 kts 349°
2026-05-08 18:20 12.41084 19.62565 33790 ft 408 kts 349°
2026-05-08 18:21 12.46659 19.61453 33790 ft 408 kts 349°
2026-05-08 18:21 12.52234 19.60339 33791 ft 408 kts 349°
2026-05-08 18:22 12.57802 19.59226 33790 ft 408 kts 349°
2026-05-08 18:22 12.63328 19.58124 33786 ft 407 kts 349°
2026-05-08 18:23 12.68889 19.57013 33790 ft 407 kts 349°
2026-05-08 18:23 12.74447 19.55901 33789 ft 407 kts 349°
2026-05-08 18:24 12.79998 19.54789 33790 ft 407 kts 348°
2026-05-08 18:24 12.85549 19.53677 33792 ft 406 kts 349°
2026-05-08 18:25 12.91102 19.52565 33793 ft 406 kts 349°
2026-05-08 18:25 12.96646 19.51454 33793 ft 406 kts 349°
2026-05-08 18:26 13.02186 19.50346 33796 ft 405 kts 349°
2026-05-08 18:26 13.07724 19.49238 33794 ft 405 kts 348°
2026-05-08 18:27 13.12323 19.48316 33796 ft 405 kts 348°
2026-05-08 18:27 13.18755 19.47026 33794 ft 405 kts 348°
2026-05-08 18:28 13.24285 19.45916 33800 ft 405 kts 348°
2026-05-08 18:28 13.29814 19.44806 33800 ft 405 kts 348°
2026-05-08 18:29 13.35342 19.43698 33800 ft 405 kts 348°
2026-05-08 18:29 13.40868 19.42589 33805 ft 404 kts 348°
2026-05-08 18:30 13.46389 19.41480 33802 ft 404 kts 348°
2026-05-08 18:30 13.51911 19.40370 33809 ft 404 kts 348°
2026-05-08 18:31 13.57430 19.39259 33810 ft 404 kts 348°
2026-05-08 18:31 13.62948 19.38148 33809 ft 404 kts 348°
2026-05-08 18:32 13.68467 19.37037 33806 ft 404 kts 348°
2026-05-08 18:32 13.73947 19.35934 33813 ft 404 kts 348°
2026-05-08 18:33 13.79455 19.34825 33808 ft 403 kts 348°
2026-05-08 18:33 13.84970 19.33713 33811 ft 403 kts 348°
2026-05-08 18:34 13.90474 19.32602 33814 ft 403 kts 348°
2026-05-08 18:34 13.95980 19.31490 33813 ft 403 kts 348°
2026-05-08 18:35 14.01478 19.30381 33813 ft 403 kts 348°
2026-05-08 18:35 14.06975 19.29272 33816 ft 402 kts 348°
2026-05-08 18:36 14.12472 19.28161 33816 ft 402 kts 348°
2026-05-08 18:36 14.17965 19.27050 33819 ft 402 kts 348°
2026-05-08 18:37 14.23449 19.25940 33821 ft 402 kts 348°
2026-05-08 18:37 14.28935 19.24829 33824 ft 402 kts 348°
2026-05-08 18:38 14.34384 19.23726 33823 ft 402 kts 348°
2026-05-08 18:38 14.39868 19.22616 33824 ft 402 kts 348°
2026-05-08 18:39 14.45351 19.21506 33827 ft 401 kts 348°
2026-05-08 18:39 14.50839 19.20392 33829 ft 401 kts 348°
2026-05-08 18:40 14.56323 19.19278 33832 ft 401 kts 348°
2026-05-08 18:40 14.61804 19.18165 33835 ft 401 kts 348°
2026-05-08 18:41 14.67283 19.17053 33835 ft 401 kts 348°
2026-05-08 18:41 14.72765 19.15940 33836 ft 401 kts 348°
2026-05-08 18:42 14.78251 19.14825 33837 ft 402 kts 348°
2026-05-08 18:42 14.83734 19.13709 33840 ft 402 kts 348°
2026-05-08 18:43 14.89236 19.12963 33837 ft 402 kts 353°
2026-05-08 18:43 14.94791 19.12307 33838 ft 402 kts 353°
2026-05-08 18:44 15.00358 19.11688 33839 ft 402 kts 353°
2026-05-08 18:44 15.05924 19.11053 33845 ft 402 kts 353°
2026-05-08 18:45 15.11489 19.10425 33846 ft 402 kts 353°
2026-05-08 18:45 15.17054 19.09794 33850 ft 402 kts 353°
2026-05-08 18:46 15.22620 19.09163 33852 ft 402 kts 353°
2026-05-08 18:46 15.28184 19.08530 33853 ft 402 kts 352°
2026-05-08 18:47 15.33721 19.07900 33855 ft 402 kts 352°
2026-05-08 18:47 15.39286 19.07268 33853 ft 402 kts 352°
2026-05-08 18:48 15.44854 19.06634 33858 ft 402 kts 353°
2026-05-08 18:48 15.50421 19.06002 33858 ft 402 kts 353°
2026-05-08 18:49 15.55984 19.05370 33862 ft 402 kts 352°
2026-05-08 18:49 15.61551 19.04736 33865 ft 402 kts 352°
2026-05-08 18:50 15.67110 19.04102 33865 ft 402 kts 352°
2026-05-08 18:50 15.71736 19.03574 33865 ft 402 kts 352°
2026-05-08 18:51 15.78233 19.02832 33870 ft 402 kts 352°
2026-05-08 18:51 15.83791 19.02197 33868 ft 401 kts 352°
2026-05-08 18:52 15.89311 19.01568 33871 ft 401 kts 352°
2026-05-08 18:52 15.94867 19.00934 33871 ft 401 kts 352°
2026-05-08 18:53 16.00415 19.00299 33874 ft 401 kts 352°
2026-05-08 18:53 16.05967 18.99663 33872 ft 401 kts 352°
2026-05-08 18:54 16.10580 18.99135 33876 ft 401 kts 352°
2026-05-08 18:54 16.16125 18.98499 33874 ft 401 kts 352°
2026-05-08 18:55 16.24444 18.97548 33878 ft 401 kts 352°
2026-05-08 18:56 16.29985 18.96911 33876 ft 401 kts 352°
2026-05-08 18:56 16.32746 18.96596 33720 ft 394 kts 352°
2026-05-08 18:56 16.35429 18.96289 33244 ft 381 kts 352°
2026-05-08 18:56 16.38031 18.95991 32768 ft 371 kts 352°
2026-05-08 18:57 16.40571 18.95696 32300 ft 364 kts 352°
2026-05-08 18:57 16.43069 18.95411 31839 ft 358 kts 352°
2026-05-08 18:57 16.45529 18.95128 31385 ft 354 kts 352°
2026-05-08 18:57 16.47936 18.94851 30933 ft 351 kts 352°
2026-05-08 18:58 16.50357 18.94574 30481 ft 349 kts 352°
2026-05-08 18:58 16.52766 18.94295 30029 ft 348 kts 353°
2026-05-08 18:58 16.55171 18.94019 29540 ft 346 kts 353°
2026-05-08 18:58 16.57558 18.93745 29090 ft 344 kts 353°
2026-05-08 18:59 16.59931 18.93471 28644 ft 342 kts 353°
2026-05-08 18:59 16.62290 18.93200 28202 ft 341 kts 353°
2026-05-08 18:59 16.64646 18.92930 27753 ft 340 kts 353°
2026-05-08 18:59 16.66991 18.92658 27415 ft 337 kts 353°
2026-05-08 19:00 16.69325 18.92391 26986 ft 337 kts 353°
2026-05-08 19:00 16.71659 18.92120 26544 ft 338 kts 353°
2026-05-08 19:00 16.74000 18.91851 26105 ft 339 kts 353°
2026-05-08 19:00 16.76348 18.91582 25654 ft 340 kts 354°
2026-05-08 19:01 16.78704 18.91308 25208 ft 341 kts 354°
2026-05-08 19:01 16.81070 18.91037 24759 ft 343 kts 354°
2026-05-08 19:01 16.83443 18.90762 24309 ft 344 kts 354°
2026-05-08 19:01 16.85827 18.90487 23851 ft 345 kts 355°
2026-05-08 19:02 16.88220 18.90211 23389 ft 347 kts 355°
2026-05-08 19:02 16.90617 18.89935 22889 ft 346 kts 355°
2026-05-08 19:02 16.93011 18.89658 22430 ft 345 kts 355°
2026-05-08 19:02 16.95365 18.89386 21984 ft 344 kts 355°
2026-05-08 19:03 16.97739 18.89112 21534 ft 343 kts 355°
2026-05-08 19:03 17.00110 18.88839 21081 ft 342 kts 355°
2026-05-08 19:03 17.02476 18.88564 20628 ft 341 kts 355°
2026-05-08 19:03 17.04834 18.88293 20180 ft 341 kts 355°
2026-05-08 19:04 17.07190 18.88019 19727 ft 340 kts 355°
2026-05-08 19:04 17.09542 18.87749 19280 ft 340 kts 356°
2026-05-08 19:04 17.11890 18.87475 18823 ft 339 kts 356°
2026-05-08 19:04 17.14234 18.87206 18379 ft 338 kts 356°
2026-05-08 19:05 17.16575 18.86932 17904 ft 338 kts 356°
2026-05-08 19:05 17.18903 18.86665 17447 ft 335 kts 356°
2026-05-08 19:05 17.21218 18.86394 17006 ft 333 kts 356°
2026-05-08 19:05 17.23516 18.86131 16574 ft 331 kts 356°
2026-05-08 19:06 17.25802 18.85863 16127 ft 330 kts 356°
2026-05-08 19:06 17.28079 18.85601 15697 ft 329 kts 356°
2026-05-08 19:06 17.30347 18.85339 15263 ft 328 kts 356°
2026-05-08 19:06 17.32615 18.85074 14834 ft 327 kts 356°
2026-05-08 19:07 17.34857 18.84815 14410 ft 318 kts 356°
2026-05-08 19:07 17.36986 18.84563 14002 ft 306 kts 356°
2026-05-08 19:07 17.39066 18.84326 13602 ft 296 kts 356°
2026-05-08 19:07 17.41087 18.84088 13199 ft 288 kts 356°
2026-05-08 19:08 17.43056 18.83863 12825 ft 282 kts 356°
2026-05-08 19:08 17.44984 18.83638 12455 ft 276 kts 356°
2026-05-08 19:08 17.46881 18.83417 12100 ft 273 kts 356°
2026-05-08 19:08 17.48758 18.83201 11745 ft 270 kts 356°
2026-05-08 19:09 17.50615 18.82984 11390 ft 268 kts 356°
2026-05-08 19:09 17.52460 18.82772 11042 ft 266 kts 356°
2026-05-08 19:09 17.54297 18.82556 10694 ft 265 kts 357°
2026-05-08 19:09 17.56133 18.82345 10345 ft 265 kts 356°
2026-05-08 19:10 17.57964 18.82130 10001 ft 265 kts 357°
2026-05-08 19:10 17.59796 18.81919 9636 ft 265 kts 357°
2026-05-08 19:10 17.61622 18.81705 9276 ft 264 kts 357°
2026-05-08 19:10 17.63442 18.81494 8927 ft 262 kts 357°
2026-05-08 19:11 17.65250 18.81281 8585 ft 261 kts 357°
2026-05-08 19:11 17.67054 18.81075 8235 ft 260 kts 357°
2026-05-08 19:11 17.68849 18.80863 7893 ft 259 kts 357°
2026-05-08 19:11 17.70637 18.80657 7552 ft 259 kts 357°
2026-05-08 19:12 17.72386 18.80750 7212 ft 246 kts 19°
2026-05-08 19:12 17.73887 18.81505 6888 ft 235 kts 38°
2026-05-08 19:12 17.74967 18.82738 6585 ft 228 kts 56°
2026-05-08 19:12 17.75817 18.84162 5983 ft 234 kts 58°
2026-05-08 19:13 17.76674 18.85628 5474 ft 235 kts 59°
2026-05-08 19:13 17.77507 18.87039 5244 ft 224 kts 58°
2026-05-08 19:13 17.78308 18.88392 5013 ft 212 kts 58°
2026-05-08 19:13 17.79069 18.89676 4752 ft 203 kts 58°
2026-05-08 19:14 17.79805 18.90913 4494 ft 197 kts 58°
2026-05-08 19:14 17.80517 18.92124 4234 ft 193 kts 58°
2026-05-08 19:14 17.81219 18.93306 3982 ft 189 kts 58°
2026-05-08 19:14 17.81907 18.94468 3733 ft 187 kts 58°
2026-05-08 19:15 17.82558 18.95571 3508 ft 171 kts 58°
2026-05-08 19:15 17.83158 18.96586 3286 ft 156 kts 58°
2026-05-08 19:15 17.83703 18.97510 3092 ft 137 kts 57°
2026-05-08 19:15 17.84147 18.98263 2915 ft 111 kts 57°
2026-05-08 19:16 17.84541 18.98922 2767 ft 104 kts 58°
2026-05-08 19:16 17.84918 18.99566 2636 ft 104 kts 58°
2026-05-08 19:16 17.85299 19.00210 2493 ft 103 kts 59°
2026-05-08 19:16 17.85675 19.00841 2359 ft 101 kts 59°
2026-05-08 19:17 17.86042 19.01462 2229 ft 98 kts 57°
2026-05-08 19:17 17.86379 19.02041 2090 ft 89 kts 55°
2026-05-08 19:17 17.86695 19.02574 1972 ft 83 kts 57°
2026-05-08 19:17 17.86999 19.03076 1867 ft 82 kts 56°
2026-05-08 19:18 17.87300 19.03597 1778 ft 86 kts 56°
2026-05-08 19:18 17.87626 19.04146 1663 ft 91 kts 58°
2026-05-08 19:18 17.87967 19.04714 1548 ft 93 kts 57°
2026-05-08 19:18 17.88318 19.05315 1416 ft 101 kts 54°
2026-05-08 19:19 17.88692 19.05959 1347 ft 102 kts 59°
2026-05-08 19:19 17.89059 19.06603 1278 ft 105 kts 57°
2026-05-08 19:19 17.89437 19.07245 1184 ft 102 kts 57°
2026-05-08 19:19 17.89803 19.07872 1120 ft 102 kts 57°
2026-05-08 19:20 17.90183 19.08516 1040 ft 103 kts 59°
2026-05-08 19:20 17.90310 19.08728 1064 ft 101 kts 57°
2026-05-08 19:20 17.90944 19.09775 842 ft 99 kts 57°
2026-05-08 19:20 17.91274 19.10326 763 ft 78 kts 59°
2026-05-08 19:21 17.91444 19.10610 768 ft 17 kts 59°
2026-05-08 19:21 17.91503 19.10713 770 ft 16 kts 58°
2026-05-08 19:21 17.91558 19.10805 772 ft 10 kts 58°
2026-05-08 19:21 17.91598 19.10861 774 ft 9 kts 36°
2026-05-08 19:22 17.91663 19.10854 772 ft 11 kts 328°
2026-05-08 19:22 17.91717 19.10819 771 ft 8 kts 328°
2026-05-08 19:22 17.91754 19.10811 771 ft 4 kts 358°
2026-05-08 19:22 17.91784 19.10799 771 ft 5 kts 330°
2026-05-08 19:23 17.91793 19.10786 770 ft 1 kts 246°
2026-05-08 19:23 17.91790 19.10780 770 ft 3 kts 242°
2026-05-08 19:23 17.91787 19.10775 770 ft 0 kts 243°